Location: Unnamed
(47.6264°N, 122.3366°W)
Time: 22:18:31
(UTC-07:00)

ELYUSIUM/LOWER FREE FLYE - Pass Details

Date: 14 August 2020
Orbit: 571 x 589 km, 97.7° (Epoch: 21 September)

Event Time Altitude Azimuth Distance (km) Brightness Sun altitude
Exits shadow 23:20:11 47° 242° (WSW) 774 ? -23.5°
Maximum altitude 23:20:33 48° 260° (W) 757 ? -23.5°
Drops below altitude 10° 23:24:33 10° 336° (NNW) 1,902 ? -23.8°
Sets 23:26:47 0° 342° (NNW) 2,809 ? -24.0°
